TimeCST,TemperatureF,Dew PointF,Humidity,Sea Level PressureIn,VisibilityMPH,Wind Direction,Wind SpeedMPH,Gust SpeedMPH,PrecipitationIn,Events,Conditions,WindDirDegrees,DateUTC
12:15 AM,38.5,35.2,88,30.03,10.0,South,3.5,-,N/A,,Scattered Clouds,190,2013-02-06 06:15:00
12:35 AM,41.0,37.4,87,30.03,10.0,SSW,3.5,-,N/A,,Scattered Clouds,210,2013-02-06 06:35:00
12:55 AM,41.9,41.9,100,30.03,0.2,SW,3.5,-,N/A,Fog,Fog,220,2013-02-06 06:55:00
1:15 AM,43.3,43.3,100,30.02,0.2,South,3.5,-,N/A,Fog,Fog,190,2013-02-06 07:15:00
1:35 AM,43.7,43.7,100,30.02,0.2,Calm,Calm,-,N/A,Fog,Fog,0,2013-02-06 07:35:00
1:55 AM,44.2,44.2,100,30.02,0.2,Calm,Calm,-,N/A,Fog,Fog,0,2013-02-06 07:55:00
2:15 AM,44.8,44.8,100,30.02,0.2,Calm,Calm,-,N/A,Fog,Fog,0,2013-02-06 08:15:00
2:35 AM,45.5,45.5,100,30.02,0.2,Calm,Calm,-,N/A,Fog,Fog,0,2013-02-06 08:35:00
2:55 AM,45.5,45.5,100,30.01,0.2,Calm,Calm,-,N/A,Fog,Fog,0,2013-02-06 08:55:00
3:15 AM,45.7,45.7,100,30.01,0.2,Calm,Calm,-,N/A,Fog,Fog,0,2013-02-06 09:15:00
3:35 AM,45.9,45.9,100,30.01,0.2,Calm,Calm,-,N/A,Fog,Fog,0,2013-02-06 09:35:00
3:55 AM,46.0,46.0,100,30.00,0.2,Calm,Calm,-,N/A,Fog,Fog,0,2013-02-06 09:55:00
4:15 AM,46.6,46.6,100,30.00,0.5,Calm,Calm,-,N/A,Fog,Fog,0,2013-02-06 10:15:00
4:35 AM,46.6,46.6,100,30.00,0.8,Calm,Calm,-,N/A,,Overcast,0,2013-02-06 10:35:00
4:55 AM,46.8,46.8,100,29.99,0.8,Calm,Calm,-,N/A,,Overcast,0,2013-02-06 10:55:00
5:15 AM,47.3,47.3,100,30.00,1.5,East,3.5,-,N/A,,Overcast,90,2013-02-06 11:15:00
5:35 AM,47.5,47.5,100,30.00,0.8,East,3.5,-,N/A,,Overcast,90,2013-02-06 11:35:00
5:55 AM,47.8,47.8,100,30.00,0.5,Calm,Calm,-,N/A,Fog,Fog,0,2013-02-06 11:55:00
6:15 AM,48.4,48.4,100,30.01,0.5,SSE,4.6,-,N/A,Fog,Fog,150,2013-02-06 12:15:00
6:35 AM,48.9,48.9,100,30.00,1.0,SE,3.5,-,N/A,,Overcast,140,2013-02-06 12:35:00
6:55 AM,49.3,49.3,100,30.00,2.0,SE,4.6,-,N/A,,Overcast,130,2013-02-06 12:55:00
7:15 AM,49.5,49.5,100,30.00,3.0,SE,4.6,-,N/A,,Overcast,130,2013-02-06 13:15:00
7:35 AM,49.6,49.6,100,30.00,2.0,ESE,5.8,-,N/A,,Overcast,120,2013-02-06 13:35:00
8:15 AM,47.7,47.7,100,30.00,0.2,East,4.6,-,N/A,Fog,Fog,100,2013-02-06 14:15:00
8:35 AM,48.6,48.6,100,30.00,0.2,ESE,5.8,-,N/A,Fog,Fog,120,2013-02-06 14:35:00
8:55 AM,48.7,48.7,100,30.00,0.2,SE,4.6,-,N/A,Fog,Fog,130,2013-02-06 14:55:00
9:15 AM,49.5,49.5,100,30.00,0.5,SE,6.9,-,N/A,Fog,Fog,130,2013-02-06 15:15:00
9:35 AM,50.2,50.2,100,29.99,0.8,SE,5.8,-,N/A,,Overcast,140,2013-02-06 15:35:00
9:55 AM,50.9,50.9,100,29.99,1.2,SSE,6.9,-,N/A,,Overcast,150,2013-02-06 15:55:00
10:15 AM,52.2,52.2,100,29.99,1.2,SSE,5.8,-,N/A,,Overcast,150,2013-02-06 16:15:00
10:35 AM,52.5,52.5,100,29.99,0.5,SE,6.9,-,N/A,Fog,Fog,140,2013-02-06 16:35:00
10:55 AM,52.7,52.7,100,29.98,1.8,SSE,10.4,-,N/A,,Overcast,150,2013-02-06 16:55:00
11:15 AM,53.6,53.6,100,29.97,3.0,SSE,10.4,-,N/A,,Overcast,150,2013-02-06 17:15:00
11:35 AM,54.9,54.9,100,29.97,7.0,SSE,11.5,-,N/A,,Overcast,160,2013-02-06 17:35:00
11:55 AM,54.9,54.9,100,29.96,7.0,SSE,9.2,-,N/A,,Overcast,160,2013-02-06 17:55:00
12:15 PM,55.4,55.4,100,29.96,10.0,SSE,12.7,-,N/A,,Overcast,160,2013-02-06 18:15:00
12:35 PM,56.3,56.3,100,29.94,10.0,SSE,10.4,-,N/A,,Overcast,160,2013-02-06 18:35:00
12:55 PM,57.0,57.0,100,29.92,10.0,South,8.1,-,N/A,,Overcast,170,2013-02-06 18:55:00
1:15 PM,57.9,57.2,97,29.91,10.0,South,11.5,17.3,N/A,,Overcast,180,2013-02-06 19:15:00
1:35 PM,58.8,57.0,94,29.90,10.0,South,10.4,-,N/A,,Overcast,170,2013-02-06 19:35:00
1:55 PM,58.8,56.8,93,29.89,10.0,SSE,12.7,-,N/A,,Overcast,160,2013-02-06 19:55:00
2:15 PM,59.0,57.4,94,29.87,10.0,South,13.8,18.4,N/A,,Overcast,170,2013-02-06 20:15:00
2:35 PM,59.9,57.4,91,29.87,10.0,South,11.5,20.7,N/A,,Overcast,170,2013-02-06 20:35:00
2:55 PM,59.9,57.7,93,29.86,10.0,SSE,10.4,16.1,N/A,,Overcast,160,2013-02-06 20:55:00
3:15 PM,59.9,56.3,88,29.85,10.0,SSE,12.7,17.3,N/A,,Overcast,160,2013-02-06 21:15:00
3:35 PM,60.3,56.7,88,29.85,10.0,SSE,11.5,-,N/A,,Overcast,150,2013-02-06 21:35:00
3:55 PM,60.6,56.5,86,29.84,10.0,SE,12.7,17.3,N/A,,Overcast,140,2013-02-06 21:55:00
4:15 PM,61.2,56.8,86,29.83,10.0,SE,10.4,-,N/A,,Overcast,140,2013-02-06 22:15:00
4:35 PM,61.3,56.8,85,29.83,10.0,SE,9.2,-,N/A,,Overcast,140,2013-02-06 22:35:00
4:55 PM,61.3,57.2,86,29.82,10.0,SE,10.4,-,N/A,,Mostly Cloudy,140,2013-02-06 22:55:00
5:15 PM,61.9,57.2,85,29.82,10.0,SSE,11.5,-,N/A,,Mostly Cloudy,160,2013-02-06 23:15:00
5:35 PM,61.7,57.2,85,29.82,10.0,SSE,13.8,20.7,N/A,,Mostly Cloudy,160,2013-02-06 23:35:00
5:55 PM,60.1,57.2,90,29.82,10.0,SE,13.8,19.6,N/A,,Scattered Clouds,140,2013-02-06 23:55:00
6:15 PM,59.0,57.6,95,29.82,10.0,SE,10.4,-,N/A,,Clear,140,2013-02-07 00:15:00
6:35 PM,57.7,57.7,100,29.83,7.0,SE,8.1,-,N/A,,Clear,140,2013-02-07 00:35:00
6:55 PM,57.9,57.9,100,29.83,7.0,SE,9.2,-,N/A,,Mostly Cloudy,140,2013-02-07 00:55:00
7:15 PM,58.3,58.3,100,29.83,7.0,SSE,11.5,-,N/A,,Overcast,150,2013-02-07 01:15:00
7:35 PM,58.3,58.3,100,29.83,7.0,SE,9.2,-,N/A,,Overcast,140,2013-02-07 01:35:00
7:55 PM,58.5,58.5,100,29.83,5.0,SE,10.4,-,N/A,,Overcast,140,2013-02-07 01:55:00
8:35 PM,57.7,57.7,100,29.83,4.0,SSE,12.7,21.9,N/A,,Overcast,150,2013-02-07 02:35:00
8:55 PM,56.8,56.8,100,29.83,4.0,SSE,17.3,26.5,N/A,,Overcast,150,2013-02-07 02:55:00
9:15 PM,56.3,56.3,100,29.83,4.0,SSE,18.4,21.9,N/A,,Overcast,150,2013-02-07 03:15:00
9:35 PM,56.3,56.3,100,29.83,4.0,SSE,15.0,27.6,N/A,,Overcast,160,2013-02-07 03:35:00
9:55 PM,56.3,56.3,100,29.83,4.0,SSE,17.3,24.2,N/A,,Overcast,160,2013-02-07 03:55:00
10:35 PM,56.5,56.5,100,29.83,5.0,South,20.7,26.5,N/A,,Overcast,170,2013-02-07 04:35:00
10:55 PM,56.8,56.8,100,29.83,5.0,South,16.1,24.2,N/A,,Overcast,170,2013-02-07 04:55:00
11:15 PM,57.2,57.2,100,29.83,7.0,South,18.4,26.5,N/A,,Overcast,170,2013-02-07 05:15:00
11:35 PM,57.7,57.7,100,29.83,7.0,SSE,18.4,28.8,N/A,,Overcast,160,2013-02-07 05:35:00
11:55 PM,58.1,58.1,100,29.83,10.0,SSE,13.8,26.5,N/A,,Overcast,160,2013-02-07 05:55:00